<?xml version="1.0" encoding="utf-8"?>
<gpx xmlns:xsi="http://www.w3.org/2001/XMLSchema-instance" xmlns:xsd="http://www.w3.org/2001/XMLSchema" xsi:schemaLocation="http://www.topografix.com/GPX/1/1 http://www.topografix.com/GPX/1/1/gpx.xsd" version="1.1" creator="QuoVadis 7.3.0.38" xmlns="http://www.topografix.com/GPX/1/1">
  <metadata>
    <link href="http://www.quovadis-gps.com">
      <text>QuoVadis Homepage</text>
    </link>
    <time>2017-11-24T18:33:18.5728785Z</time>
  </metadata>
  <trk>
    <name>03-200-02_Goldschmieding</name>
    <cmt>Merged from 03-200-02_Goldschmieding + 03-200-01_ Goldschmiding</cmt>
    <extensions>
      <gpxx:TrackExtension xsi:schemaLocation="http://www.garmin.com/xmlschemas/GpxExtensions/v3 http://www.garmin.com/xmlschemas/GpxExtensions/v3/GpxExtensionsv3.xsd" xmlns:gpxx="http://www.garmin.com/xmlschemas/GpxExtensions/v3">
        <gpxx:DisplayColor>Red</gpxx:DisplayColor>
      </gpxx:TrackExtension>
    </extensions>
    <trkseg>
      <trkpt lat="51.5482358748709" lon="7.32148196477215">
        <ele>0</ele>
        <time>0001-01-01T00:00:00Z</time>
      </trkpt>
      <trkpt lat="51.5484544699867" lon="7.32182447295537">
        <ele>0</ele>
        <time>0001-01-01T00:00:00Z</time>
      </trkpt>
      <trkpt lat="51.5487291136435" lon="7.3224193555894">
        <ele>0</ele>
        <time>0001-01-01T00:00:00Z</time>
      </trkpt>
      <trkpt lat="51.5491438784724" lon="7.32311338532909">
        <ele>0</ele>
        <time>0001-01-01T00:00:00Z</time>
      </trkpt>
      <trkpt lat="51.549396098479" lon="7.32374432145609">
        <ele>0</ele>
        <time>0001-01-01T00:00:00Z</time>
      </trkpt>
      <trkpt lat="51.5496427122445" lon="7.32354602724475">
        <ele>0</ele>
        <time>0001-01-01T00:00:00Z</time>
      </trkpt>
      <trkpt lat="51.5498108572272" lon="7.32345589351232">
        <ele>0</ele>
        <time>0001-01-01T00:00:00Z</time>
      </trkpt>
      <trkpt lat="51.5497940427569" lon="7.32375333482933">
        <ele>0</ele>
        <time>0001-01-01T00:00:00Z</time>
      </trkpt>
      <trkpt lat="51.5498949294855" lon="7.32396965578716">
        <ele>0</ele>
        <time>0001-01-01T00:00:00Z</time>
      </trkpt>
      <trkpt lat="51.5499677919837" lon="7.32459157854091">
        <ele>0</ele>
        <time>0001-01-01T00:00:00Z</time>
      </trkpt>
      <trkpt lat="51.5501583548889" lon="7.32481691287198">
        <ele>0</ele>
        <time>0001-01-01T00:00:00Z</time>
      </trkpt>
      <trkpt lat="51.5503489169957" lon="7.32471776576631">
        <ele>0</ele>
        <time>0001-01-01T00:00:00Z</time>
      </trkpt>
      <trkpt lat="51.5504778262037" lon="7.32428512385066">
        <ele>0</ele>
        <time>0001-01-01T00:00:00Z</time>
      </trkpt>
      <trkpt lat="51.5505007516956" lon="7.32416114744773">
        <ele>106</ele>
        <time>0001-01-01T00:00:00Z</time>
      </trkpt>
      <trkpt lat="51.5504188898203" lon="7.32393878146057">
        <ele>0</ele>
        <time>0001-01-01T00:00:00Z</time>
      </trkpt>
      <trkpt lat="51.550369444542" lon="7.32362507482221">
        <ele>108</ele>
        <time>0001-01-01T00:00:00Z</time>
      </trkpt>
      <trkpt lat="51.5504049645223" lon="7.32349194700529">
        <ele>0</ele>
        <time>0001-01-01T00:00:00Z</time>
      </trkpt>
      <trkpt lat="51.5507636670574" lon="7.32271679690641">
        <ele>0</ele>
        <time>0001-01-01T00:00:00Z</time>
      </trkpt>
      <trkpt lat="51.5510655969915" lon="7.32239145588585">
        <ele>0</ele>
        <time>0001-01-01T00:00:00Z</time>
      </trkpt>
      <trkpt lat="51.5513185294699" lon="7.32228415499076">
        <ele>0</ele>
        <time>0001-01-01T00:00:00Z</time>
      </trkpt>
      <trkpt lat="51.5515315051642" lon="7.32226612824427">
        <ele>0</ele>
        <time>0001-01-01T00:00:00Z</time>
      </trkpt>
      <trkpt lat="51.551604944817" lon="7.32198395745741">
        <ele>0</ele>
        <time>0001-01-01T00:00:00Z</time>
      </trkpt>
      <trkpt lat="51.5516364582053" lon="7.32182953885702">
        <ele>112</ele>
        <time>0001-01-01T00:00:00Z</time>
      </trkpt>
      <trkpt lat="51.5515571152844" lon="7.32139071370399">
        <ele>110</ele>
        <time>0001-01-01T00:00:00Z</time>
      </trkpt>
      <trkpt lat="51.5514810636425" lon="7.32092313563109">
        <ele>0</ele>
        <time>0001-01-01T00:00:00Z</time>
      </trkpt>
      <trkpt lat="51.5515146913298" lon="7.32020206577167">
        <ele>0</ele>
        <time>0001-01-01T00:00:00Z</time>
      </trkpt>
      <trkpt lat="51.5516548064262" lon="7.31977843722925">
        <ele>0</ele>
        <time>0001-01-01T00:00:00Z</time>
      </trkpt>
      <trkpt lat="51.5517388752769" lon="7.31960718313764">
        <ele>0</ele>
        <time>0001-01-01T00:00:00Z</time>
      </trkpt>
      <trkpt lat="51.5517500844452" lon="7.319471982539">
        <ele>0</ele>
        <time>0001-01-01T00:00:00Z</time>
      </trkpt>
      <trkpt lat="51.5516940385758" lon="7.31914750110226">
        <ele>0</ele>
        <time>0001-01-01T00:00:00Z</time>
      </trkpt>
      <trkpt lat="51.5516211788424" lon="7.31883203303876">
        <ele>0</ele>
        <time>0001-01-01T00:00:00Z</time>
      </trkpt>
      <trkpt lat="51.5514082035679" lon="7.31864275220066">
        <ele>0</ele>
        <time>0001-01-01T00:00:00Z</time>
      </trkpt>
      <trkpt lat="51.551268087712" lon="7.31860669870769">
        <ele>0</ele>
        <time>0001-01-01T00:00:00Z</time>
      </trkpt>
      <trkpt lat="51.5511728086835" lon="7.31837235100338">
        <ele>0</ele>
        <time>0001-01-01T00:00:00Z</time>
      </trkpt>
      <trkpt lat="51.5511167621029" lon="7.31813800329906">
        <ele>0</ele>
        <time>0001-01-01T00:00:00Z</time>
      </trkpt>
      <trkpt lat="51.551181618061" lon="7.31793370869752">
        <ele>0</ele>
        <time>0001-01-01T00:00:00Z</time>
      </trkpt>
      <trkpt lat="51.5512454092278" lon="7.31767893113696">
        <ele>111</ele>
        <time>0001-01-01T00:00:00Z</time>
      </trkpt>
      <trkpt lat="51.5512176458982" lon="7.31752509391855">
        <ele>0</ele>
        <time>0001-01-01T00:00:00Z</time>
      </trkpt>
      <trkpt lat="51.5510600957545" lon="7.31729811829473">
        <ele>0</ele>
        <time>0001-01-01T00:00:00Z</time>
      </trkpt>
      <trkpt lat="51.5508816313474" lon="7.31739485507772">
        <ele>0</ele>
        <time>0001-01-01T00:00:00Z</time>
      </trkpt>
      <trkpt lat="51.5506606827873" lon="7.31766444443443">
        <ele>110</ele>
        <time>0001-01-01T00:00:00Z</time>
      </trkpt>
      <trkpt lat="51.5506571775374" lon="7.31780450848908">
        <ele>0</ele>
        <time>0001-01-01T00:00:00Z</time>
      </trkpt>
      <trkpt lat="51.5508645516357" lon="7.31805688293988">
        <ele>0</ele>
        <time>0001-01-01T00:00:00Z</time>
      </trkpt>
      <trkpt lat="51.5507356435236" lon="7.31847149810905">
        <ele>0</ele>
        <time>0001-01-01T00:00:00Z</time>
      </trkpt>
      <trkpt lat="51.5508085046753" lon="7.31901230050362">
        <ele>0</ele>
        <time>0001-01-01T00:00:00Z</time>
      </trkpt>
      <trkpt lat="51.5502918653766" lon="7.32016618192708">
        <ele>0</ele>
        <time>0001-01-01T00:00:00Z</time>
      </trkpt>
      <trkpt lat="51.5504043425497" lon="7.32017105327015">
        <ele>90</ele>
        <time>0001-01-01T00:00:00Z</time>
      </trkpt>
      <trkpt lat="51.5504784009755" lon="7.32024044496578">
        <ele>90</ele>
        <time>0001-01-01T00:00:00Z</time>
      </trkpt>
      <trkpt lat="51.5505140405423" lon="7.32037435715996">
        <ele>90</ele>
        <time>0001-01-01T00:00:00Z</time>
      </trkpt>
      <trkpt lat="51.5505171364106" lon="7.32059060328966">
        <ele>89</ele>
        <time>0001-01-01T00:00:00Z</time>
      </trkpt>
      <trkpt lat="51.5504581824367" lon="7.32079110449499">
        <ele>89</ele>
        <time>0001-01-01T00:00:00Z</time>
      </trkpt>
      <trkpt lat="51.5503656526091" lon="7.32100185647244">
        <ele>0</ele>
        <time>0001-01-01T00:00:00Z</time>
      </trkpt>
      <trkpt lat="51.5501919835539" lon="7.32082398852542">
        <ele>0</ele>
        <time>0001-01-01T00:00:00Z</time>
      </trkpt>
      <trkpt lat="51.5499341631529" lon="7.32075188153948">
        <ele>0</ele>
        <time>0001-01-01T00:00:00Z</time>
      </trkpt>
      <trkpt lat="51.5494801715038" lon="7.32086905539163">
        <ele>0</ele>
        <time>0001-01-01T00:00:00Z</time>
      </trkpt>
      <trkpt lat="51.5494367727783" lon="7.32128847248319">
        <ele>0</ele>
        <time>0001-01-01T00:00:00Z</time>
      </trkpt>
      <trkpt lat="51.5487683483163" lon="7.32103129611">
        <ele>0</ele>
        <time>0001-01-01T00:00:00Z</time>
      </trkpt>
      <trkpt lat="51.548196639739" lon="7.32087806876488">
        <ele>0</ele>
        <time>0001-01-01T00:00:00Z</time>
      </trkpt>
      <trkpt lat="51.5479612282366" lon="7.32095918912406">
        <ele>0</ele>
        <time>0001-01-01T00:00:00Z</time>
      </trkpt>
      <trkpt lat="51.5477874713464" lon="7.32058062744786">
        <ele>0</ele>
        <time>0001-01-01T00:00:00Z</time>
      </trkpt>
      <trkpt lat="51.5476727335857" lon="7.32016350382198">
        <ele>0</ele>
        <time>0001-01-01T00:00:00Z</time>
      </trkpt>
      <trkpt lat="51.547703728598" lon="7.31997305860751">
        <ele>0</ele>
        <time>0001-01-01T00:00:00Z</time>
      </trkpt>
      <trkpt lat="51.5475744781242" lon="7.31999475818708">
        <ele>0</ele>
        <time>0001-01-01T00:00:00Z</time>
      </trkpt>
      <trkpt lat="51.5475240322149" lon="7.31996771806735">
        <ele>0</ele>
        <time>0001-01-01T00:00:00Z</time>
      </trkpt>
      <trkpt lat="51.5473782992741" lon="7.319471982539">
        <ele>0</ele>
        <time>0001-01-01T00:00:00Z</time>
      </trkpt>
      <trkpt lat="51.5472101453008" lon="7.31910243423604">
        <ele>0</ele>
        <time>0001-01-01T00:00:00Z</time>
      </trkpt>
      <trkpt lat="51.5470195700465" lon="7.31899427375713">
        <ele>0</ele>
        <time>0001-01-01T00:00:00Z</time>
      </trkpt>
      <trkpt lat="51.546857019934" lon="7.31906638074307">
        <ele>0</ele>
        <time>0001-01-01T00:00:00Z</time>
      </trkpt>
      <trkpt lat="51.5467561264687" lon="7.31919256796847">
        <ele>0</ele>
        <time>0001-01-01T00:00:00Z</time>
      </trkpt>
      <trkpt lat="51.5464982865964" lon="7.31927368832766">
        <ele>0</ele>
        <time>0001-01-01T00:00:00Z</time>
      </trkpt>
      <trkpt lat="51.546459049966" lon="7.31936382206009">
        <ele>0</ele>
        <time>0001-01-01T00:00:00Z</time>
      </trkpt>
      <trkpt lat="51.5462124189429" lon="7.31958915639116">
        <ele>0</ele>
        <time>0001-01-01T00:00:00Z</time>
      </trkpt>
      <trkpt lat="51.54601623422" lon="7.31963422325737">
        <ele>0</ele>
        <time>0001-01-01T00:00:00Z</time>
      </trkpt>
      <trkpt lat="51.546274076824" lon="7.32118452345513">
        <ele>0</ele>
        <time>0001-01-01T00:00:00Z</time>
      </trkpt>
      <trkpt lat="51.5462124189429" lon="7.32149097814539">
        <ele>0</ele>
        <time>0001-01-01T00:00:00Z</time>
      </trkpt>
      <trkpt lat="51.5461843926057" lon="7.32156308513133">
        <ele>0</ele>
        <time>0001-01-01T00:00:00Z</time>
      </trkpt>
      <trkpt lat="51.5460834976489" lon="7.32173433922294">
        <ele>0</ele>
        <time>0001-01-01T00:00:00Z</time>
      </trkpt>
      <trkpt lat="51.5457696007967" lon="7.32170729910322">
        <ele>0</ele>
        <time>0001-01-01T00:00:00Z</time>
      </trkpt>
      <trkpt lat="51.5454052535205" lon="7.32132873742702">
        <ele>0</ele>
        <time>0001-01-01T00:00:00Z</time>
      </trkpt>
      <trkpt lat="51.5451642221806" lon="7.32086905539163">
        <ele>0</ele>
        <time>0001-01-01T00:00:00Z</time>
      </trkpt>
      <trkpt lat="51.5450465087366" lon="7.32061668094084">
        <ele>0</ele>
        <time>0001-01-01T00:00:00Z</time>
      </trkpt>
      <trkpt lat="51.5446709447605" lon="7.3201660122787">
        <ele>0</ele>
        <time>0001-01-01T00:00:00Z</time>
      </trkpt>
      <trkpt lat="51.5445756519153" lon="7.32050852046192">
        <ele>0</ele>
        <time>0001-01-01T00:00:00Z</time>
      </trkpt>
      <trkpt lat="51.5441216067945" lon="7.32106734960298">
        <ele>0</ele>
        <time>0001-01-01T00:00:00Z</time>
      </trkpt>
      <trkpt lat="51.5436563459832" lon="7.32179743283564">
        <ele>0</ele>
        <time>0001-01-01T00:00:00Z</time>
      </trkpt>
      <trkpt lat="51.5433480380057" lon="7.32244639570913">
        <ele>0</ele>
        <time>0001-01-01T00:00:00Z</time>
      </trkpt>
      <trkpt lat="51.5433648548583" lon="7.32309535858261">
        <ele>0</ele>
        <time>0001-01-01T00:00:00Z</time>
      </trkpt>
      <trkpt lat="51.5433648548583" lon="7.32313141207558">
        <ele>0</ele>
        <time>0001-01-01T00:00:00Z</time>
      </trkpt>
      <trkpt lat="51.5433161859453" lon="7.32325337681261">
        <ele>88</ele>
        <time>0001-01-01T00:00:00Z</time>
      </trkpt>
      <trkpt lat="51.5429332188924" lon="7.32359194173821">
        <ele>0</ele>
        <time>0001-01-01T00:00:00Z</time>
      </trkpt>
      <trkpt lat="51.5427089930003" lon="7.32376234820257">
        <ele>0</ele>
        <time>0001-01-01T00:00:00Z</time>
      </trkpt>
      <trkpt lat="51.5425183988928" lon="7.32379840169555">
        <ele>0</ele>
        <time>0001-01-01T00:00:00Z</time>
      </trkpt>
      <trkpt lat="51.5424006786041" lon="7.32379840169555">
        <ele>0</ele>
        <time>0001-01-01T00:00:00Z</time>
      </trkpt>
      <trkpt lat="51.5420867563454" lon="7.32399669590689">
        <ele>0</ele>
        <time>0001-01-01T00:00:00Z</time>
      </trkpt>
      <trkpt lat="51.5417771052401" lon="7.32410312339247">
        <ele>0</ele>
        <time>0001-01-01T00:00:00Z</time>
      </trkpt>
      <trkpt lat="51.5415866275039" lon="7.32414617485337">
        <ele>0</ele>
        <time>0001-01-01T00:00:00Z</time>
      </trkpt>
      <trkpt lat="51.5415192183722" lon="7.32414865152028">
        <ele>92</ele>
        <time>0001-01-01T00:00:00Z</time>
      </trkpt>
      <trkpt lat="51.5415104286372" lon="7.32432022568314">
        <ele>0</ele>
        <time>0001-01-01T00:00:00Z</time>
      </trkpt>
      <trkpt lat="51.5414684487555" lon="7.32452907180992">
        <ele>92</ele>
        <time>0001-01-01T00:00:00Z</time>
      </trkpt>
      <trkpt lat="51.5415042119282" lon="7.3246719696728">
        <ele>91</ele>
        <time>0001-01-01T00:00:00Z</time>
      </trkpt>
      <trkpt lat="51.5415877444154" lon="7.32501140457954">
        <ele>0</ele>
        <time>0001-01-01T00:00:00Z</time>
      </trkpt>
      <trkpt lat="51.5418176784001" lon="7.32543883562574">
        <ele>0</ele>
        <time>0001-01-01T00:00:00Z</time>
      </trkpt>
      <trkpt lat="51.5420755447961" lon="7.32579035718221">
        <ele>0</ele>
        <time>0001-01-01T00:00:00Z</time>
      </trkpt>
      <trkpt lat="51.5421147852066" lon="7.32570923682302">
        <ele>0</ele>
        <time>0001-01-01T00:00:00Z</time>
      </trkpt>
      <trkpt lat="51.5421428140505" lon="7.32531264840034">
        <ele>0</ele>
        <time>0001-01-01T00:00:00Z</time>
      </trkpt>
      <trkpt lat="51.5420250927902" lon="7.32501520708333">
        <ele>0</ele>
        <time>0001-01-01T00:00:00Z</time>
      </trkpt>
      <trkpt lat="51.5418961596318" lon="7.32465467215361">
        <ele>0</ele>
        <time>0001-01-01T00:00:00Z</time>
      </trkpt>
      <trkpt lat="51.5420923621191" lon="7.32433019071687">
        <ele>0</ele>
        <time>0001-01-01T00:00:00Z</time>
      </trkpt>
      <trkpt lat="51.542675358804" lon="7.32406880289283">
        <ele>0</ele>
        <time>0001-01-01T00:00:00Z</time>
      </trkpt>
      <trkpt lat="51.5434489390283" lon="7.32328463942071">
        <ele>0</ele>
        <time>0001-01-01T00:00:00Z</time>
      </trkpt>
      <trkpt lat="51.5437348240439" lon="7.32338378652638">
        <ele>0</ele>
        <time>0001-01-01T00:00:00Z</time>
      </trkpt>
      <trkpt lat="51.5438637519927" lon="7.32383445518852">
        <ele>0</ele>
        <time>0001-01-01T00:00:00Z</time>
      </trkpt>
      <trkpt lat="51.5440935791694" lon="7.32433920409011">
        <ele>0</ele>
        <time>0001-01-01T00:00:00Z</time>
      </trkpt>
      <trkpt lat="51.5442393226312" lon="7.32461861866064">
        <ele>0</ele>
        <time>0001-01-01T00:00:00Z</time>
      </trkpt>
      <trkpt lat="51.5442729556715" lon="7.32491605997765">
        <ele>0</ele>
        <time>0001-01-01T00:00:00Z</time>
      </trkpt>
      <trkpt lat="51.5442897721823" lon="7.32488000648468">
        <ele>0</ele>
        <time>0001-01-01T00:00:00Z</time>
      </trkpt>
      <trkpt lat="51.5443177996865" lon="7.32481691287198">
        <ele>0</ele>
        <time>0001-01-01T00:00:00Z</time>
      </trkpt>
      <trkpt lat="51.5449344004115" lon="7.32403274939986">
        <ele>0</ele>
        <time>0001-01-01T00:00:00Z</time>
      </trkpt>
      <trkpt lat="51.5451474059929" lon="7.32490704660441">
        <ele>0</ele>
        <time>0001-01-01T00:00:00Z</time>
      </trkpt>
      <trkpt lat="51.5452763299394" lon="7.32522251466791">
        <ele>0</ele>
        <time>0001-01-01T00:00:00Z</time>
      </trkpt>
      <trkpt lat="51.5453267783407" lon="7.32540278213277">
        <ele>0</ele>
        <time>0001-01-01T00:00:00Z</time>
      </trkpt>
      <trkpt lat="51.5454693421487" lon="7.32565306719079">
        <ele>108</ele>
        <time>0001-01-01T00:00:00Z</time>
      </trkpt>
      <trkpt lat="51.5459265494935" lon="7.32690801546431">
        <ele>0</ele>
        <time>0001-01-01T00:00:00Z</time>
      </trkpt>
      <trkpt lat="51.5460947082107" lon="7.32625905259083">
        <ele>0</ele>
        <time>0001-01-01T00:00:00Z</time>
      </trkpt>
      <trkpt lat="51.5462348400003" lon="7.32589851766112">
        <ele>0</ele>
        <time>0001-01-01T00:00:00Z</time>
      </trkpt>
      <trkpt lat="51.5466328119295" lon="7.32557403622438">
        <ele>0</ele>
        <time>0001-01-01T00:00:00Z</time>
      </trkpt>
      <trkpt lat="51.5470027545446" lon="7.32541179550601">
        <ele>0</ele>
        <time>0001-01-01T00:00:00Z</time>
      </trkpt>
      <trkpt lat="51.5471148577734" lon="7.32532166177358">
        <ele>0</ele>
        <time>0001-01-01T00:00:00Z</time>
      </trkpt>
      <trkpt lat="51.5472830120989" lon="7.32527659490737">
        <ele>0</ele>
        <time>0001-01-01T00:00:00Z</time>
      </trkpt>
      <trkpt lat="51.5474735862498" lon="7.32524955478764">
        <ele>0</ele>
        <time>0001-01-01T00:00:00Z</time>
      </trkpt>
      <trkpt lat="51.5476977901112" lon="7.32510534081575">
        <ele>0</ele>
        <time>0001-01-01T00:00:00Z</time>
      </trkpt>
      <trkpt lat="51.548241479887" lon="7.32466368552686">
        <ele>0</ele>
        <time>0001-01-01T00:00:00Z</time>
      </trkpt>
      <trkpt lat="51.5484768899392" lon="7.32447440468876">
        <ele>0</ele>
        <time>0001-01-01T00:00:00Z</time>
      </trkpt>
      <trkpt lat="51.5485329397722" lon="7.32405077614635">
        <ele>0</ele>
        <time>0001-01-01T00:00:00Z</time>
      </trkpt>
      <trkpt lat="51.5474007197569" lon="7.32259962305425">
        <ele>0</ele>
        <time>0001-01-01T00:00:00Z</time>
      </trkpt>
      <trkpt lat="51.5476025036051" lon="7.32239231546967">
        <ele>0</ele>
        <time>0001-01-01T00:00:00Z</time>
      </trkpt>
      <trkpt lat="51.5478995726419" lon="7.32193263343429">
        <ele>0</ele>
        <time>0001-01-01T00:00:00Z</time>
      </trkpt>
      <trkpt lat="51.5482190598185" lon="7.32150900489187">
        <ele>0</ele>
        <time>0001-01-01T00:00:00Z</time>
      </trkpt>
    </trkseg>
  </trk>
</gpx>